TimePDT,TemperatureF,Dew PointF,Humidity,Sea Level PressureIn,VisibilityMPH,Wind Direction,Wind SpeedMPH,Gust SpeedMPH,PrecipitationIn,Events,Conditions,WindDirDegrees,DateUTC
12:53 AM,28.0,15.1,58,30.09,10.0,Calm,Calm,-,N/A,,Clear,0,2013-04-25 07:53:00
1:53 AM,26.1,16.0,66,30.07,10.0,Calm,Calm,-,N/A,,Clear,0,2013-04-25 08:53:00
2:53 AM,26.1,16.0,66,30.05,10.0,Calm,Calm,-,N/A,,Clear,0,2013-04-25 09:53:00
3:53 AM,24.1,14.0,65,30.06,10.0,Calm,Calm,-,N/A,,Clear,0,2013-04-25 10:53:00
4:53 AM,24.1,16.0,71,30.06,10.0,Calm,Calm,-,N/A,,Clear,0,2013-04-25 11:53:00
5:53 AM,21.9,12.9,68,30.06,10.0,Calm,Calm,-,N/A,,Clear,0,2013-04-25 12:53:00
6:53 AM,30.0,17.1,59,30.05,10.0,Calm,Calm,-,N/A,,Clear,0,2013-04-25 13:53:00
7:53 AM,37.9,18.0,45,30.06,10.0,Calm,Calm,-,N/A,,Clear,0,2013-04-25 14:53:00
8:53 AM,44.1,18.0,35,30.09,10.0,Calm,Calm,-,N/A,,Clear,0,2013-04-25 15:53:00
9:53 AM,50.0,18.0,28,30.08,10.0,Variable,3.5,-,N/A,,Clear,0,2013-04-25 16:53:00
10:53 AM,55.9,19.0,24,30.06,10.0,Calm,Calm,-,N/A,,Clear,0,2013-04-25 17:53:00
11:53 AM,63.0,21.0,20,30.03,10.0,WSW,5.8,-,N/A,,Clear,240,2013-04-25 18:53:00
12:53 PM,64.9,21.9,19,30.02,10.0,Calm,Calm,-,N/A,,Clear,0,2013-04-25 19:53:00
1:53 PM,70.0,21.9,16,30.01,10.0,West,13.8,19.6,N/A,,Clear,280,2013-04-25 20:53:00
2:53 PM,70.0,23.0,17,30.01,10.0,WNW,10.4,21.9,N/A,,Clear,290,2013-04-25 21:53:00
3:53 PM,71.1,25.0,18,30.01,10.0,NW,17.3,21.9,N/A,,Clear,320,2013-04-25 22:53:00
4:53 PM,68.0,26.1,21,30.01,10.0,WNW,16.1,20.7,N/A,,Clear,290,2013-04-25 23:53:00
5:53 PM,70.0,26.1,19,30.03,10.0,WNW,16.1,-,N/A,,Clear,300,2013-04-26 00:53:00
6:53 PM,66.0,27.0,23,30.03,10.0,NW,15.0,20.7,N/A,,Clear,310,2013-04-26 01:53:00
7:53 PM,59.0,26.1,28,30.05,10.0,WNW,6.9,-,N/A,,Clear,300,2013-04-26 02:53:00
8:53 PM,48.9,26.1,41,30.10,10.0,NW,8.1,-,N/A,,Clear,320,2013-04-26 03:53:00
9:53 PM,46.9,27.0,46,30.12,10.0,NW,4.6,-,N/A,,Clear,310,2013-04-26 04:53:00
10:53 PM,43.0,28.0,56,30.12,10.0,West,6.9,-,N/A,,Clear,260,2013-04-26 05:53:00
11:53 PM,42.1,27.0,55,30.12,10.0,WNW,6.9,-,N/A,,Clear,290,2013-04-26 06:53:00